M0CJS Weather Reports


Display with metric or nautical units.
time (UTC)temp
F
wind
direction
speed
MPH
gust
MPH
rain 1hr
in
rain 24hr
in
rain mn
in
humidity
%
barometer
mb
20260507123517 0 0.0 0.0 0.00 0.00 0.00
20260507122537 0 0.0 0.0 0.00 0.00 0.00
20260507121516 0 0.0 0.0 0.00 0.00 0.00
20260507120516 0 0.0 0.0 0.00 0.00 0.00
20260507115516 0 0.0 0.0 0.00 0.00 0.00
20260507114517 0 0.0 0.0 0.00 0.00 0.00
20260507113517 0 0.0 0.0 0.00 0.00 0.00
20260507112537 0 0.0 0.0 0.00 0.00 0.00
20260507111537 61 81 2.0 0.0 0.00 0.00 0.00 56 1017.7
20260507110516 61 135 1.0 2.0 0.00 0.00 0.00 56 1017.7
20260507105517 61 158 3.0 7.0 0.00 0.00 0.00 58 1017.9
20260507104537 61 90 1.0 5.0 0.00 0.00 0.00 57 1017.8
20260507103516 61 158 3.0 7.0 0.00 0.00 0.00 59 1018.0
20260507102516 60 90 1.0 3.0 0.00 0.00 0.00 60 1018.1
20260507101517 60 158 2.0 5.0 0.00 0.00 0.00 60 1018.2
20260507100516 60 158 2.0 7.0 0.00 0.00 0.00 60 1018.1
20260507095536 60 135 2.0 7.0 0.00 0.00 0.00 63 1018.2
20260507094516 59 180 2.0 5.0 0.00 0.00 0.00 66 1018.2
20260507093536 59 135 1.0 6.0 0.00 0.00 0.00 66 1018.2
20260507092516 58 180 2.0 8.0 0.00 0.00 0.00 67 1018.2
20260507091516 58 113 1.0 5.0 0.00 0.00 0.00 69 1018.2
20260507090516 57 158 3.0 7.0 0.00 0.00 0.00 70 1018.2
20260507085516 56 135 1.0 4.0 0.00 0.00 0.00 72 1018.2
20260507084536 56 158 3.0 8.0 0.00 0.00 0.00 71 1018.3
20260507083516 55 158 2.0 5.0 0.00 0.00 0.00 73 1018.3
20260507082516 54 158 3.0 7.0 0.00 0.00 0.00 74 1018.1
20260507081516 54 158 4.0 12.0 0.00 0.00 0.00 75 1018.1
20260507080516 52 180 3.0 6.0 0.00 0.00 0.00 78 1018.1
20260507075516 51 158 2.0 5.0 0.00 0.00 0.00 78 1018.1
20260507074516 51 158 2.0 5.0 0.00 0.00 0.00 77 1018.1
20260507073516 52 180 2.0 9.0 0.00 0.00 0.00 76 1018.1
20260507072516 52 0.0 2.0 0.00 0.00 0.00 77 1018.1
20260507071516 51 225 3.0 8.0 0.00 0.00 0.00 80 1018.1
20260507070536 49 0.0 2.0 0.00 0.00 0.00 83 1018.0
20260507065536 47 203 1.0 5.0 0.00 0.00 0.00 87 1018.0
20260507064516 46 0.0 4.0 0.00 0.00 0.00 87 1017.9
20260507063516 46 0.0 2.0 0.00 0.00 0.00 87 1017.9
20260507062516 46 158 1.0 4.0 0.00 0.00 0.00 88 1017.8
20260507061516 45 0.0 0.0 0.00 0.00 0.00 89 1017.8
20260507060516 45 0.0 0.0 0.00 0.00 0.00 89 1017.8
20260507055516 45 0.0 0.0 0.00 0.00 0.00 90 1017.7
20260507054516 45 0.0 0.0 0.00 0.00 0.00 90 1017.7
20260507053516 44 0.0 0.0 0.00 0.00 0.00 90 1017.6
20260507052536 44 0.0 0.0 0.00 0.00 0.00 91 1017.5
20260507051516 43 0.0 0.0 0.00 0.00 0.00 92 1017.5
20260507050516 43 0.0 0.0 0.00 0.00 0.00 92 1017.6
20260507045516 43 0.0 0.0 0.00 0.00 0.00 92 1017.5
20260507044516 43 0.0 0.0 0.00 0.00 0.00 92 1017.6
20260507043535 43 0.0 0.0 0.00 0.00 0.00 92 1017.5
20260507042516 43 0.0 0.0 0.00 0.00 0.00 92 1017.4
20260507041516 43 0.0 0.0 0.00 0.00 0.00 92 1017.4
20260507040516 43 0.0 0.0 0.00 0.00 0.00 92 1017.4
20260507035515 43 0.0 0.0 0.00 0.00 0.00 92 1017.4
20260507034516 43 0.0 0.0 0.00 0.00 0.00 92 1017.4
20260507033536 43 0.0 0.0 0.00 0.00 0.00 92 1017.5
20260507032516 42 0.0 0.0 0.00 0.00 0.00 92 1017.5
20260507031515 42 0.0 0.0 0.00 0.00 0.00 92 1017.6
20260507030515 42 0.0 0.0 0.00 0.00 0.00 92 1017.7
20260507025515 42 0.0 0.0 0.00 0.00 0.00 92 1017.7
20260507024536 42 0.0 0.0 0.00 0.00 0.00 92 1017.6
20260507023515 42 0.0 0.0 0.00 0.00 0.00 92 1017.7
20260507022515 42 0.0 0.0 0.00 0.00 0.00 92 1017.6
20260507021515 42 0.0 0.0 0.00 0.00 0.00 92 1017.6
20260507020535 42 0.0 0.0 0.00 0.00 0.00 92 1017.6
20260507015515 42 0.0 0.0 0.00 0.00 0.00 92 1017.6
20260507014515 42 0.0 0.0 0.00 0.00 0.00 92 1017.8
20260507013515 42 0.0 0.0 0.00 0.00 0.00 92 1017.8
20260507012515 42 0.0 0.0 0.00 0.00 0.00 91 1017.8
20260507011537 42 0.0 0.0 0.00 0.00 0.00 91 1017.8
20260507010517 43 0.0 0.0 0.00 0.00 0.00 92 1017.9
20260507005517 43 0.0 0.0 0.00 0.00 0.00 92 1017.8
20260507004517 42 0.0 0.0 0.00 0.00 0.00 91 1017.8
20260507003517 42 0.0 0.0 0.00 0.00 0.00 91 1017.8
20260507002517 42 0.0 0.0 0.00 0.00 0.00 91 1017.9
20260507001517 42 0.0 0.0 0.00 0.00 0.00 91 1017.9
20260507000517 42 0.0 0.0 0.00 0.00 0.00 91 1018.1
20260506235517 42 0.0 0.0 0.00 0.00 0.00 91 1018.0
20260506234517 42 0.0 0.0 0.00 0.00 0.00 92 1018.1
20260506233517 42 0.0 0.0 0.00 0.00 0.00 91 1017.9
20260506232517 41 0.0 1.0 0.00 0.00 0.00 91 1017.9
20260506231517 41 0.0 1.0 0.00 0.00 0.00 91 1017.8
20260506230517 41 0.0 1.0 0.00 0.00 0.00 91 1017.9
20260506225537 41 0.0 1.0 0.00 0.00 0.00 90 1017.9
20260506224537 41 0.0 1.0 0.00 0.00 0.00 89 1017.9
20260506223517 42 0.0 0.0 0.00 0.00 0.00 89 1017.8
20260506222517 42 0.0 0.0 0.00 0.00 0.00 89 1017.7
20260506221517 42 0.0 0.0 0.00 0.00 0.00 88 1017.7
20260506220517 42 0.0 1.0 0.00 0.00 0.00 88 1017.6
20260506215517 43 0.0 1.0 0.00 0.00 0.00 88 1017.5
20260506214517 43 0.0 1.0 0.00 0.00 0.00 88 1017.6
20260506213517 43 0.0 1.0 0.00 0.00 0.00 88 1017.6
20260506212517 43 0.0 2.0 0.00 0.00 0.00 87 1017.4
20260506211517 43 0.0 2.0 0.00 0.00 0.00 87 1017.3
20260506210517 43 68 1.0 3.0 0.00 0.00 0.00 87 1017.1
20260506205517 44 68 1.0 4.0 0.00 0.00 0.00 86 1017.0
20260506204517 44 68 2.0 7.0 0.00 0.00 0.00 86 1017.1
20260506203517 44 90 1.0 4.0 0.00 0.00 0.00 86 1017.1
20260506202537 44 0.0 2.0 0.00 0.00 0.00 85 1017.0
20260506201517 45 68 1.0 4.0 0.00 0.00 0.00 85 1017.0
20260506200517 45 68 1.0 4.0 0.00 0.00 0.00 84 1016.8
20260506195517 46 68 2.0 6.0 0.00 0.00 0.00 83 1016.8
20260506194517 46 68 1.0 4.0 0.00 0.00 0.00 83 1016.8
20260506193537 47 68 2.0 6.0 0.00 0.00 0.00 82 1016.8
20260506192517 47 68 1.0 3.0 0.00 0.00 0.00 82 1016.7
20260506191537 47 90 1.0 4.0 0.00 0.00 0.00 82 1016.7
20260506191017 47 68 2.0 6.0 0.00 0.00 0.00 82 1016.7
20260506190018 48 68 2.0 5.0 0.00 0.00 0.00 81 1016.7
20260506185017 48 90 2.0 4.0 0.00 0.00 0.00 80 1016.7
20260506184036 48 45 2.0 6.0 0.00 0.00 0.00 80 1016.7
20260506183036 48 45 3.0 7.0 0.00 0.00 0.00 80 1016.7
20260506182036 48 45 3.0 6.0 0.00 0.00 0.00 80 1016.6
20260506181017 49 45 3.0 9.0 0.00 0.00 0.00 79 1016.6
20260506180016 49 68 3.0 8.0 0.00 0.00 0.00 78 1016.5
20260506175517 49 45 3.0 9.0 0.00 0.00 0.00 78 1016.4
20260506174517 49 68 3.0 10.0 0.00 0.00 0.00 78 1016.4
20260506173536 49 68 2.0 7.0 0.00 0.00 0.00 78 1016.3
20260506172536 49 45 3.0 8.0 0.00 0.00 0.00 77 1016.2
20260506171517 49 45 4.0 10.0 0.00 0.00 0.00 76 1016.2
20260506170516 50 45 5.0 10.0 0.00 0.00 0.00 77 1016.2
20260506165516 50 45 6.0 13.0 0.00 0.00 0.00 75 1016.1
20260506164516 50 45 5.0 11.0 0.00 0.00 0.00 75 1016.1
20260506163516 50 68 4.0 10.0 0.00 0.00 0.00 74 1016.1
20260506162516 50 45 6.0 11.0 0.00 0.00 0.00 74 1016.1
20260506161516 51 68 5.0 13.0 0.00 0.00 0.00 74 1016.0
20260506160516 51 45 5.0 11.0 0.00 0.00 0.00 73 1016.0
20260506155516 51 45 6.0 11.0 0.00 0.00 0.00 70 1015.9
20260506154516 52 45 5.0 11.0 0.00 0.00 0.00 69 1016.0
20260506153516 52 45 6.0 11.0 0.00 0.00 0.00 68 1016.0
20260506152517 52 45 6.0 12.0 0.00 0.00 0.00 70 1016.0
20260506151516 52 45 6.0 13.0 0.00 0.00 0.00 70 1016.0
20260506150516 52 45 5.0 9.0 0.00 0.00 0.00 69 1016.1
20260506145516 52 45 5.0 10.0 0.00 0.00 0.00 68 1016.1
20260506144516 52 45 7.0 12.0 0.00 0.00 0.00 68 1016.1
20260506143516 52 45 8.0 13.0 0.00 0.00 0.00 67 1016.1
20260506142536 53 45 7.0 13.0 0.00 0.00 0.00 63 1016.1
20260506141516 55 45 7.0 13.0 0.00 0.00 0.00 61 1016.0
20260506140536 55 45 4.0 9.0 0.00 0.00 0.00 62 1016.1
20260506135536 54 45 5.0 11.0 0.00 0.00 0.00 62 1016.1
20260506134516 54 45 6.0 12.0 0.00 0.00 0.00 61 1016.1
20260506133516 54 45 6.0 11.0 0.00 0.00 0.00 60 1016.2
20260506132516 53 45 7.0 11.0 0.00 0.00 0.00 59 1016.2
20260506131516 54 45 7.0 11.0 0.00 0.00 0.00 60 1016.2
20260506130516 54 45 5.0 11.0 0.00 0.00 0.00 58 1016.3
20260506125516 53 45 5.0 14.0 0.00 0.00 0.00 58 1016.2
20260506124516 54 45 6.0 12.0 0.00 0.00 0.00 58 1016.2